Cosmos 1503 Rocket - Orbit

View from above orbital plane
View from above orbital plane
View from above satellite
View from above satellite

Ground track
Ground track

The orbit data is extracted from the following two-line orbital elements,

1 14402U 83103B   13168.20467912  .00000100  00000-0  43962-4 0  4462
2 14402 074.0482 052.2290 0028075 254.7286 251.6606 14.35321424552674
Epoch (UTC): 17 June 2013 04:54:44
Eccentricity: 0.0028075
inclination: 74.0482°
perigee height: 754 km
apogee height: 794 km
right ascension of ascending node: 52.2290°
argument of perigee: 254.7286°
revolutions per day: 14.35321424
mean anomaly at epoch: 251.6606°
orbit number at epoch: 55267

The dashed part of the orbit path shows where the satellite is in the earth's shadow,  

Developed and maintained by Chris Peat, Heavens-Above GmbH. Please read the updated FAQ before sending e-mail. Imprint. DLR